When you browse on this site, cookies collect data to enhance your experience and personalize the content and advertising you see.
Visit our Privacy Policy to learn more. By continuing to use the site, you agree to this use of cookies and data.
  • In Lithuania
  • List of Countries
  • For 7 days
  • Water Temperature
  • Weather Map
  • Weather Widgets
  • user-avatar
    Login

    Hourly Weather Verhnie Gorki

    Today, 24 January, Friday

    Time Temperature Precipitation Wind Pressure Humidity
    00:00 -5°C° 0 mm 3 mps 735 mmHg 79%
    01:00 -5°C° 0 mm 4 mps 735 mmHg 84%
    02:00 -5°C° 0 mm 4 mps 734 mmHg 90%
    03:00 -4°C° 0.1 mm 4 mps 733 mmHg 91%
    04:00 -4°C° 0.1 mm 4 mps 732 mmHg 91%
    05:00 -5°C° 0.1 mm 5 mps 731 mmHg 92%
    06:00 -5°C° 0.3 mm 5 mps 730 mmHg 93%
    07:00 -4°C° 0.3 mm 5 mps 730 mmHg 94%
    08:00 -4°C° 0.3 mm 5 mps 729 mmHg 95%
    09:00 -2°C° 0.1 mm 5 mps 729 mmHg 94%
    10:00 -1°C° 0.1 mm 5 mps 728 mmHg 94%
    11:00 0°C° 0.1 mm 5 mps 728 mmHg 94%
    12:00 0°C° 0.1 mm 5 mps 728 mmHg 93%
    13:00 0°C° 0.1 mm 5 mps 727 mmHg 92%
    14:00 0°C° 0.1 mm 5 mps 727 mmHg 92%
    15:00 0°C° 0.1 mm 5 mps 726 mmHg 93%
    16:00 0°C° 0.1 mm 5 mps 726 mmHg 94%
    17:00 0°C° 0.1 mm 5 mps 726 mmHg 95%
    18:00 0°C° 0 mm 4 mps 726 mmHg 94%
    19:00 0°C° 0 mm 3 mps 726 mmHg 93%
    20:00 0°C° 0 mm 3 mps 726 mmHg 93%
    21:00 0°C° 0.5 mm 3 mps 726 mmHg 93%
    22:00 -1°C° 0.5 mm 4 mps 726 mmHg 93%
    23:00 0°C° 0.5 mm 4 mps 726 mmHg 94%

    Tomorrow, 25 January, Saturday

    Time Temperature Precipitation Wind Pressure Humidity
    00:00 -1°C° 0.1 mm 4 mps 726 mmHg 93%
    01:00 -1°C° 0.1 mm 4 mps 726 mmHg 92%
    02:00 -1°C° 0.1 mm 3 mps 726 mmHg 91%
    03:00 -1°C° 0 mm 3 mps 726 mmHg 90%
    04:00 0°C° 0 mm 3 mps 726 mmHg 89%
    05:00 0°C° 0 mm 3 mps 725 mmHg 88%
    06:00 -1°C° 0 mm 4 mps 725 mmHg 86%
    07:00 -1°C° 0 mm 4 mps 725 mmHg 84%
    08:00 -1°C° 0 mm 5 mps 724 mmHg 81%
    09:00 -2°C° 0.1 mm 6 mps 724 mmHg 79%
    10:00 -2°C° 0.1 mm 6 mps 724 mmHg 77%
    11:00 -2°C° 0.1 mm 7 mps 724 mmHg 75%
    12:00 -2°C° 0.2 mm 7 mps 724 mmHg 71%
    13:00 -3°C° 0.2 mm 7 mps 724 mmHg 67%
    14:00 -3°C° 0.2 mm 7 mps 725 mmHg 63%
    15:00 -3°C° 0 mm 6 mps 725 mmHg 66%
    16:00 -4°C° 0 mm 6 mps 726 mmHg 69%
    17:00 -5°C° 0 mm 6 mps 726 mmHg 72%
    18:00 -5°C° 0 mm 6 mps 727 mmHg 73%
    19:00 -5°C° 0 mm 6 mps 727 mmHg 73%
    20:00 -6°C° 0 mm 7 mps 727 mmHg 74%
    21:00 -5°C° 0 mm 6 mps 728 mmHg 75%
    22:00 -5°C° 0 mm 6 mps 729 mmHg 75%
    23:00 -5°C° 0 mm 6 mps 730 mmHg 76%

    Day after tomorrow, 26 January, Sunday

    Time Temperature Precipitation Wind Pressure Humidity
    00:00 -5°C° 0 mm 6 mps 731 mmHg 76%
    01:00 -5°C° 0 mm 6 mps 731 mmHg 76%
    02:00 -5°C° 0 mm 5 mps 732 mmHg 76%
    03:00 -6°C° 0 mm 5 mps 733 mmHg 78%
    04:00 -5°C° 0 mm 4 mps 733 mmHg 79%
    05:00 -5°C° 0 mm 4 mps 734 mmHg 81%
    06:00 -5°C° 0 mm 4 mps 734 mmHg 82%
    07:00 -5°C° 0 mm 3 mps 734 mmHg 82%
    08:00 -5°C° 0 mm 3 mps 735 mmHg 82%
    09:00 -5°C° 0 mm 3 mps 735 mmHg 78%
    10:00 -4°C° 0 mm 3 mps 735 mmHg 74%
    11:00 -2°C° 0 mm 3 mps 735 mmHg 71%
    12:00 -3°C° 0.1 mm 4 mps 734 mmHg 77%
    13:00 -3°C° 0.1 mm 4 mps 734 mmHg 83%
    14:00 -4°C° 0.1 mm 5 mps 733 mmHg 89%
    15:00 -2°C° 0.4 mm 5 mps 733 mmHg 92%
    16:00 -1°C° 0.4 mm 5 mps 733 mmHg 94%
    17:00 0°C° 0.4 mm 5 mps 732 mmHg 96%
    18:00 0°C° 0.1 mm 5 mps 732 mmHg 95%
    19:00 +1°C° 0.1 mm 5 mps 732 mmHg 93%
    20:00 +1°C° 0.1 mm 5 mps 732 mmHg 92%
    21:00 +1°C° 0 mm 5 mps 732 mmHg 91%
    22:00 +1°C° 0 mm 5 mps 733 mmHg 91%
    23:00 +1°C° 0 mm 5 mps 733 mmHg 91%

    27 January, Monday

    Time Temperature Precipitation Wind Pressure Humidity
    00:00 +1°C° 0 mm 5 mps 733 mmHg 91%
    01:00 +1°C° 0 mm 4 mps 733 mmHg 92%
    02:00 +1°C° 0 mm 4 mps 734 mmHg 92%
    03:00 +1°C° 0.1 mm 4 mps 734 mmHg 93%
    04:00 0°C° 0.1 mm 4 mps 734 mmHg 94%
    05:00 0°C° 0.1 mm 4 mps 734 mmHg 94%
    06:00 0°C° 0.1 mm 4 mps 734 mmHg 95%
    07:00 +1°C° 0.1 mm 3 mps 734 mmHg 96%
    08:00 +1°C° 0.1 mm 3 mps 734 mmHg 96%
    09:00 +1°C° 0.1 mm 3 mps 735 mmHg 97%
    10:00 +1°C° 0.1 mm 3 mps 735 mmHg 97%
    11:00 +1°C° 0.1 mm 3 mps 735 mmHg 97%
    12:00 +2°C° 0.1 mm 2 mps 735 mmHg 97%
    13:00 +2°C° 0.1 mm 2 mps 735 mmHg 97%
    14:00 +2°C° 0.1 mm 2 mps 735 mmHg 97%
    15:00 +2°C° 0.1 mm 2 mps 735 mmHg 97%
    16:00 +2°C° 0.1 mm 2 mps 735 mmHg 97%
    17:00 +2°C° 0.1 mm 2 mps 735 mmHg 97%
    18:00 +1°C° 0.1 mm 2 mps 735 mmHg 97%
    19:00 +1°C° 0.1 mm 2 mps 735 mmHg 97%
    20:00 +1°C° 0.1 mm 2 mps 735 mmHg 97%
    21:00 +1°C° 0 mm 2 mps 736 mmHg 97%
    22:00 +1°C° 0 mm 2 mps 736 mmHg 98%
    23:00 +1°C° 0 mm 2 mps 736 mmHg 98%

    28 January, Tuesday

    Time Temperature Precipitation Wind Pressure Humidity
    00:00 +1°C° 0.1 mm 2 mps 735 mmHg 98%
    01:00 +1°C° 0.1 mm 2 mps 735 mmHg 98%
    02:00 +1°C° 0.1 mm 2 mps 735 mmHg 98%
    03:00 +1°C° 0.1 mm 2 mps 735 mmHg 98%
    04:00 +1°C° 0.1 mm 2 mps 735 mmHg 98%
    05:00 +1°C° 0.1 mm 2 mps 735 mmHg 98%
    06:00 +2°C° 0 mm 1 mps 735 mmHg 98%
    07:00 +2°C° 0 mm 1 mps 735 mmHg 98%
    08:00 +1°C° 0 mm 1 mps 735 mmHg 98%
    09:00 +2°C° 0 mm 1 mps 735 mmHg 98%
    10:00 +2°C° 0 mm 1 mps 735 mmHg 98%
    11:00 +2°C° 0 mm 1 mps 736 mmHg 98%
    12:00 +2°C° 0 mm 1 mps 735 mmHg 97%
    13:00 +2°C° 0 mm 1 mps 735 mmHg 97%
    14:00 +1°C° 0 mm 2 mps 735 mmHg 97%
    15:00 -1°C° 0 mm 2 mps 735 mmHg 96%
    16:00 -1°C° 0 mm 2 mps 735 mmHg 96%
    17:00 -1°C° 0 mm 2 mps 735 mmHg 96%
    18:00 -1°C° 0 mm 2 mps 735 mmHg 96%
    19:00 -1°C° 0 mm 2 mps 735 mmHg 96%
    20:00 -1°C° 0 mm 2 mps 735 mmHg 96%
    21:00 -1°C° 0 mm 2 mps 735 mmHg 96%
    22:00 -1°C° 0 mm 3 mps 735 mmHg 96%
    23:00 -1°C° 0 mm 3 mps 735 mmHg 96%

    29 January, Wednesday

    Time Temperature Precipitation Wind Pressure Humidity
    00:00 -1°C° 0 mm 3 mps 735 mmHg 96%
    01:00 -1°C° 0 mm 3 mps 735 mmHg 96%
    02:00 -1°C° 0 mm 3 mps 735 mmHg 96%
    03:00 -1°C° 0.1 mm 3 mps 734 mmHg 96%
    04:00 -2°C° 0.1 mm 4 mps 734 mmHg 96%
    05:00 -1°C° 0.1 mm 4 mps 734 mmHg 97%
    06:00 -1°C° 0 mm 4 mps 734 mmHg 95%
    07:00 0°C° 0 mm 3 mps 733 mmHg 94%
    08:00 0°C° 0 mm 3 mps 733 mmHg 93%
    09:00 -1°C° 0.1 mm 4 mps 733 mmHg 94%
    10:00 -1°C° 0.1 mm 4 mps 733 mmHg 95%
    11:00 -1°C° 0.1 mm 4 mps 733 mmHg 96%
    12:00 -1°C° 0.1 mm 4 mps 733 mmHg 96%
    13:00 -1°C° 0.1 mm 4 mps 732 mmHg 96%
    14:00 -1°C° 0.1 mm 4 mps 732 mmHg 96%
    15:00 -1°C° 0.1 mm 4 mps 732 mmHg 96%
    16:00 -2°C° 0.1 mm 4 mps 731 mmHg 96%
    17:00 -2°C° 0.1 mm 4 mps 731 mmHg 96%
    18:00 -2°C° 0.1 mm 4 mps 731 mmHg 96%
    19:00 -2°C° 0.1 mm 4 mps 731 mmHg 96%
    20:00 -2°C° 0.1 mm 4 mps 731 mmHg 96%
    21:00 -2°C° 0.1 mm 5 mps 730 mmHg 96%
    22:00 -2°C° 0.1 mm 5 mps 730 mmHg 95%
    23:00 -2°C° 0.1 mm 5 mps 730 mmHg 95%
    Show more